CZ-4B DEB, 56088

Orbit data source: Space-Track

CZ-4B DEB, 56088 is space debris in SSO originally from a launch on Wed, 24 Oct 2018 UTC launched from the Taiyaun Space Center, China (TSC). Debris objects in space refer to the collection of defunct objects orbiting the Earth. Examples of debris include non-operational satellites, rocket bodies, and fragments generated from explosions, collisions, or faulty payload assembly.

Loading next visibility...
Identifier
56088, 2018-081J
Orbit
SSO
Last TLE update
2 days ago
Origin
Manufacturer
Unknown
Mission
Spacecraft
Bus & Motor
Unknown
Mass
Unknown
Launch date (UTC)
2018-10-24 (7 years ago)
Launch vehicle
Unknown
Launch site
Taiyaun Space Center, China (TSC)
Object type
Payload
Rocket body
Debris
Shape & HBR
Unknown
Radar Cross Section
Small (<0.1 m²)

Expand to show TLE details & history

TLE from 2 days ago
0 CZ-4B DEB
1 56088U 18081J   25185.16433130  .00006965  00000-0  26881-2 0  9990
2 56088  98.7678 339.3113 0147749 169.3823 191.0534 14.24669207116081
Epoch: 2025-07-04T03:56Z
TLE epoch observation values (Epoch: 2025-07-04T03:56:38.224Z)
Latitude
-0.00004°
Longitude
-2.26862°
Altitude
916.83 km
Speed
7.34 km/s
True Right ascension
22h 37m 14s
True Declination
0° 00' 00"
Sunlit
Object was in full shadow at epoch
Visualization orbit readout
Latitude
-72.00093°
Longitude
27.71845°
Altitude
890.924 km
Speed
7.377 km/s
Apparent Right ascension
23h 44m 56s
Apparent Declination
-57° 11' 39"
Sunlit
Object is in daylight
Visualization observer readout
Local Sidereal Time
11:21:05
Azimuth
190.666° SSW
Elevation
-72.293°
Doppler factor
1
Orbital elements
Apogee altitude
912.915 km
Perigee altitude
700.603 km
Semi-major axis
7,184.896 km
Eccentricity
0.01477
Inclination
98.7678°
RAAN
339.3113°
Arg. of periapsis
169.3823°
True anomaly
Unknown
Mean anomaly
191.0534°
Eccentric anomaly
Unknown
Mean motion
3.56379 °/min
Orbital period
101.02 mins
BSTAR
0.0026881
Loading maneuver chart data...
Loading SW <> Apogee altitude chart data...
Loading historical data...
Loading historical data...
Loading historical data...
Loading historical data...
Loading historical data...
Loading historical data...
Loading historical data...

CZ-4B DEB Visibility forecast

Observer location: undefined°, undefined°

Span
Click to sort rows by Start time (UTC) header in descending order
Start Az.
Max El. time (UTC)
Max El. Az.
Max El.
End time (UTC)
End Az.
6 mins2025-07-06 00:20:44.447Z341.701° N2025-07-06 00:23:44.447Z302.671° NW19.062°2025-07-06 00:26:44.447Z256.955° W
9 mins2025-07-06 10:00:44.447Z152.515° SSE2025-07-06 10:04:44.447Z71.956° E43.046°2025-07-06 10:09:44.447Z352.196° N
5 mins2025-07-06 11:42:44.447Z242.584° WSW2025-07-06 11:44:44.447Z265.712° W14.933°2025-07-06 11:47:44.447Z300.209° NW
6 mins2025-07-06 22:17:44.447Z51.115° ENE2025-07-06 22:20:44.447Z99.249° ESE21.674°2025-07-06 22:23:44.447Z143.647° SSE
|